Time,TemperatureF,DewpointF,PressureIn,WindDirection,WindDirectionDegrees,WindSpeedMPH,WindSpeedGustMPH,Humidity,HourlyPrecipIn,Conditions,Clouds,dailyrainin,SoftwareType,DateUTC
2013-11-17 00:00:00,53.2,50.9,29.49,SSE,153,6.0,33.0,92,0.04,,---,0.00,VWS V14.01,2013-11-17 05:00:00,
2013-11-17 00:01:00,53.2,50.9,29.49,SSE,159,16.0,20.0,92,0.04,,---,0.00,VWS V14.01,2013-11-17 05:01:00,
2013-11-17 00:02:00,53.2,50.9,29.49,South,182,13.0,22.0,92,0.04,,---,0.00,VWS V14.01,2013-11-17 05:02:00,
2013-11-17 00:07:00,53.2,50.9,29.48,SSW,211,13.0,18.0,92,0.04,,---,0.00,VWS V14.01,2013-11-17 05:07:00,
2013-11-17 00:12:00,53.2,50.9,29.49,South,174,16.0,29.0,92,0.04,,---,0.00,VWS V14.01,2013-11-17 05:12:00,
2013-11-17 00:17:00,53.1,50.8,29.49,South,172,17.0,19.0,92,0.04,,---,0.00,VWS V14.01,2013-11-17 05:17:00,
2013-11-17 00:22:00,53.0,50.7,29.49,SSE,158,14.0,26.0,92,0.03,,---,0.00,VWS V14.01,2013-11-17 05:22:00,
2013-11-17 00:27:00,53.1,50.8,29.49,SSW,205,12.0,25.0,92,0.03,,---,0.00,VWS V14.01,2013-11-17 05:27:00,
2013-11-17 00:32:00,53.1,50.8,29.49,SSE,159,18.0,21.0,92,0.03,,---,0.00,VWS V14.01,2013-11-17 05:32:00,
2013-11-17 00:37:00,53.1,50.8,29.49,SE,144,14.0,18.0,92,0.03,,---,0.00,VWS V14.01,2013-11-17 05:37:00,
2013-11-17 00:42:00,53.0,50.7,29.49,SSW,198,15.0,23.0,92,0.03,,---,0.00,VWS V14.01,2013-11-17 05:42:00,
2013-11-17 00:47:00,53.1,50.8,29.49,South,171,18.0,27.0,92,0.02,,---,0.00,VWS V14.01,2013-11-17 05:47:00,
2013-11-17 00:52:00,53.2,50.9,29.49,South,181,14.0,19.0,92,0.01,,---,0.00,VWS V14.01,2013-11-17 05:52:00,
2013-11-17 00:57:00,53.2,50.9,29.49,SSE,167,16.0,21.0,92,0.01,,---,0.00,VWS V14.01,2013-11-17 05:57:00,
2013-11-17 01:02:00,53.2,50.9,29.49,SSW,200,7.0,23.0,92,0.00,,---,0.00,VWS V14.01,2013-11-17 06:02:00,
2013-11-17 01:07:00,53.2,50.9,29.48,SSW,203,19.0,20.0,92,0.01,,---,0.01,VWS V14.01,2013-11-17 06:07:00,
2013-11-17 01:12:00,53.1,50.8,29.48,SSW,197,12.0,16.0,92,0.01,,---,0.01,VWS V14.01,2013-11-17 06:12:00,
2013-11-17 01:17:00,53.2,50.9,29.48,South,179,12.0,21.0,92,0.01,,---,0.01,VWS V14.01,2013-11-17 06:17:00,
2013-11-17 01:22:00,53.3,51.0,29.48,SSW,192,16.0,19.0,92,0.01,,---,0.01,VWS V14.01,2013-11-17 06:22:00,
2013-11-17 01:27:00,53.3,51.0,29.48,South,184,15.0,23.0,92,0.01,,---,0.01,VWS V14.01,2013-11-17 06:27:00,
2013-11-17 01:32:00,53.4,51.1,29.48,SW,225,11.0,19.0,92,0.01,,---,0.01,VWS V14.01,2013-11-17 06:32:00,
2013-11-17 01:37:00,53.5,51.2,29.48,South,191,9.0,24.0,92,0.01,,---,0.01,VWS V14.01,2013-11-17 06:37:00,
2013-11-17 01:42:00,53.5,51.2,29.48,South,180,23.0,23.0,92,0.01,,---,0.01,VWS V14.01,2013-11-17 06:42:00,
2013-11-17 01:47:00,53.6,51.3,29.48,SSW,198,9.0,14.0,92,0.01,,---,0.01,VWS V14.01,2013-11-17 06:47:00,
2013-11-17 01:52:00,53.6,51.3,29.48,South,183,11.0,20.0,92,0.01,,---,0.01,VWS V14.01,2013-11-17 06:52:00,
2013-11-17 01:57:00,53.6,51.3,29.48,SSW,202,10.0,17.0,92,0.01,,---,0.01,VWS V14.01,2013-11-17 06:57:00,
2013-11-17 02:02:00,53.7,51.4,29.48,SSW,192,11.0,19.0,92,0.01,,---,0.01,VWS V14.01,2013-11-17 07:02:00,
2013-11-17 02:07:00,53.7,51.4,29.48,SSW,203,15.0,17.0,92,0.00,,---,0.01,VWS V14.01,2013-11-17 07:07:00,
2013-11-17 02:12:00,53.8,51.5,29.48,South,184,12.0,22.0,92,0.00,,---,0.01,VWS V14.01,2013-11-17 07:12:00,
2013-11-17 02:17:00,53.8,51.5,29.48,SSW,206,9.0,15.0,92,0.00,,---,0.01,VWS V14.01,2013-11-17 07:17:00,
2013-11-17 02:22:00,53.8,51.5,29.48,SSW,197,10.0,17.0,92,0.00,,---,0.01,VWS V14.01,2013-11-17 07:22:00,
2013-11-17 02:28:00,53.9,51.6,29.48,South,190,12.0,17.0,92,0.00,,---,0.01,VWS V14.01,2013-11-17 07:28:00,
2013-11-17 02:33:00,53.9,51.6,29.47,South,189,10.0,17.0,92,0.00,,---,0.01,VWS V14.01,2013-11-17 07:33:00,
2013-11-17 02:37:00,53.9,51.6,29.47,SSW,205,13.0,20.0,92,0.00,,---,0.01,VWS V14.01,2013-11-17 07:37:00,
2013-11-17 02:43:00,53.9,51.6,29.47,South,175,12.0,23.0,92,0.00,,---,0.01,VWS V14.01,2013-11-17 07:43:00,
2013-11-17 02:48:00,54.0,52.0,29.47,South,190,10.0,19.0,93,0.00,,---,0.01,VWS V14.01,2013-11-17 07:48:00,
2013-11-17 02:53:00,54.0,52.0,29.47,SSW,200,12.0,14.0,93,0.00,,---,0.01,VWS V14.01,2013-11-17 07:53:00,
2013-11-17 02:58:00,54.0,51.7,29.47,SE,137,11.0,19.0,92,0.00,,---,0.01,VWS V14.01,2013-11-17 07:58:00,
2013-11-17 03:03:00,54.1,51.8,29.47,South,187,12.0,18.0,92,0.00,,---,0.01,VWS V14.01,2013-11-17 08:03:00,
2013-11-17 03:08:00,54.1,52.1,29.47,SSW,196,9.0,13.0,93,0.00,,---,0.01,VWS V14.01,2013-11-17 08:08:00,
2013-11-17 03:13:00,54.1,51.8,29.47,SSW,192,8.0,15.0,92,0.00,,---,0.01,VWS V14.01,2013-11-17 08:13:00,
2013-11-17 03:18:00,54.1,52.1,29.47,SSE,164,12.0,19.0,93,0.00,,---,0.01,VWS V14.01,2013-11-17 08:18:00,
2013-11-17 03:23:00,54.1,52.1,29.47,South,184,10.0,14.0,93,0.00,,---,0.01,VWS V14.01,2013-11-17 08:23:00,
2013-11-17 03:28:00,54.2,52.2,29.47,South,179,11.0,19.0,93,0.00,,---,0.01,VWS V14.01,2013-11-17 08:28:00,
2013-11-17 03:33:00,54.2,52.2,29.47,SSW,198,3.0,19.0,93,0.00,,---,0.01,VWS V14.01,2013-11-17 08:33:00,
2013-11-17 03:38:00,54.3,52.3,29.47,South,187,10.0,11.0,93,0.00,,---,0.01,VWS V14.01,2013-11-17 08:38:00,
2013-11-17 03:43:00,54.3,52.3,29.47,South,190,7.0,13.0,93,0.00,,---,0.01,VWS V14.01,2013-11-17 08:43:00,
2013-11-17 03:48:00,54.4,52.4,29.46,South,176,7.0,14.0,93,0.00,,---,0.01,VWS V14.01,2013-11-17 08:48:00,
2013-11-17 03:53:00,54.4,52.4,29.46,South,169,7.0,9.0,93,0.00,,---,0.01,VWS V14.01,2013-11-17 08:53:00,
2013-11-17 03:58:00,54.4,52.4,29.46,SE,137,7.0,13.0,93,0.00,,---,0.01,VWS V14.01,2013-11-17 08:58:00,
2013-11-17 04:03:00,54.5,52.5,29.46,SSW,200,4.0,10.0,93,0.00,,---,0.01,VWS V14.01,2013-11-17 09:03:00,
2013-11-17 04:08:00,54.5,52.5,29.46,South,169,8.0,12.0,93,0.00,,---,0.01,VWS V14.01,2013-11-17 09:08:00,
2013-11-17 04:13:00,54.6,52.6,29.46,SSE,150,5.0,13.0,93,0.00,,---,0.01,VWS V14.01,2013-11-17 09:13:00,
2013-11-17 04:18:00,54.6,52.6,29.46,South,178,4.0,9.0,93,0.00,,---,0.01,VWS V14.01,2013-11-17 09:18:00,
2013-11-17 04:23:00,54.7,52.7,29.46,South,183,6.0,12.0,93,0.00,,---,0.01,VWS V14.01,2013-11-17 09:23:00,
2013-11-17 04:28:00,54.7,52.7,29.45,South,177,4.0,11.0,93,0.00,,---,0.01,VWS V14.01,2013-11-17 09:28:00,
2013-11-17 04:33:00,54.7,52.7,29.45,South,183,5.0,8.0,93,0.00,,---,0.01,VWS V14.01,2013-11-17 09:33:00,
2013-11-17 04:38:00,54.7,52.7,29.45,South,180,12.0,13.0,93,0.00,,---,0.01,VWS V14.01,2013-11-17 09:38:00,
2013-11-17 04:43:00,54.7,52.7,29.45,South,185,4.0,10.0,93,0.00,,---,0.01,VWS V14.01,2013-11-17 09:43:00,
2013-11-17 04:48:00,54.7,52.7,29.45,South,188,9.0,12.0,93,0.00,,---,0.01,VWS V14.01,2013-11-17 09:48:00,
2013-11-17 04:53:00,54.8,52.8,29.46,SSW,200,11.0,17.0,93,0.00,,---,0.01,VWS V14.01,2013-11-17 09:53:00,
2013-11-17 04:58:00,54.8,52.8,29.45,South,190,7.0,11.0,93,0.00,,---,0.01,VWS V14.01,2013-11-17 09:58:00,
2013-11-17 05:03:00,54.9,52.9,29.45,South,183,6.0,11.0,93,0.00,,---,0.01,VWS V14.01,2013-11-17 10:03:00,
2013-11-17 05:08:00,55.0,53.0,29.45,South,180,9.0,12.0,93,0.00,,---,0.01,VWS V14.01,2013-11-17 10:08:00,
2013-11-17 05:13:00,55.0,53.0,29.46,South,179,4.0,13.0,93,0.00,,---,0.01,VWS V14.01,2013-11-17 10:13:00,
2013-11-17 05:18:00,55.0,53.0,29.46,South,182,4.0,9.0,93,0.00,,---,0.01,VWS V14.01,2013-11-17 10:18:00,
2013-11-17 05:23:00,55.1,53.1,29.46,South,189,5.0,7.0,93,0.00,,---,0.01,VWS V14.01,2013-11-17 10:23:00,
2013-11-17 05:28:00,55.1,53.1,29.46,South,178,4.0,10.0,93,0.00,,---,0.01,VWS V14.01,2013-11-17 10:28:00,
2013-11-17 05:33:00,55.1,53.1,29.45,South,173,2.0,13.0,93,0.00,,---,0.01,VWS V14.01,2013-11-17 10:33:00,
2013-11-17 05:38:00,55.2,53.2,29.45,South,180,5.0,9.0,93,0.00,,---,0.01,VWS V14.01,2013-11-17 10:38:00,
2013-11-17 05:43:00,55.3,53.3,29.45,SSW,196,3.0,9.0,93,0.00,,---,0.01,VWS V14.01,2013-11-17 10:43:00,
2013-11-17 05:48:00,55.3,53.3,29.45,SSW,192,6.0,10.0,93,0.00,,---,0.01,VWS V14.01,2013-11-17 10:48:00,
2013-11-17 05:53:00,55.3,53.3,29.45,South,186,6.0,13.0,93,0.00,,---,0.01,VWS V14.01,2013-11-17 10:53:00,
2013-11-17 05:58:00,55.4,53.4,29.45,South,182,9.0,11.0,93,0.00,,---,0.01,VWS V14.01,2013-11-17 10:58:00,
2013-11-17 06:03:00,55.4,53.4,29.45,South,190,4.0,10.0,93,0.00,,---,0.01,VWS V14.01,2013-11-17 11:03:00,
2013-11-17 06:08:00,55.4,53.4,29.45,South,173,7.0,9.0,93,0.00,,---,0.01,VWS V14.01,2013-11-17 11:08:00,
2013-11-17 06:13:00,55.3,53.3,29.44,South,180,5.0,10.0,93,0.00,,---,0.01,VWS V14.01,2013-11-17 11:13:00,
2013-11-17 06:19:00,55.2,53.2,29.44,SSE,149,4.0,11.0,93,0.00,,---,0.01,VWS V14.01,2013-11-17 11:19:00,
2013-11-17 06:24:00,55.1,53.1,29.44,SSE,159,5.0,14.0,93,0.00,,---,0.01,VWS V14.01,2013-11-17 11:24:00,
2013-11-17 06:29:00,55.1,53.1,29.43,SSE,160,3.0,10.0,93,0.00,,---,0.01,VWS V14.01,2013-11-17 11:29:00,
2013-11-17 06:34:00,55.0,53.0,29.43,SSE,163,5.0,7.0,93,0.00,,---,0.01,VWS V14.01,2013-11-17 11:34:00,
2013-11-17 06:39:00,54.9,52.9,29.43,South,178,3.0,9.0,93,0.00,,---,0.01,VWS V14.01,2013-11-17 11:39:00,
2013-11-17 06:44:00,55.0,53.0,29.43,South,186,3.0,11.0,93,0.00,,---,0.01,VWS V14.01,2013-11-17 11:44:00,
2013-11-17 06:49:00,54.9,52.9,29.43,South,184,6.0,14.0,93,0.00,,---,0.01,VWS V14.01,2013-11-17 11:49:00,
2013-11-17 06:54:00,55.0,53.0,29.44,South,191,11.0,14.0,93,0.00,,---,0.01,VWS V14.01,2013-11-17 11:54:00,
2013-11-17 06:59:00,55.0,53.0,29.44,SSW,192,10.0,12.0,93,0.00,,---,0.01,VWS V14.01,2013-11-17 11:59:00,
2013-11-17 07:04:00,55.1,53.1,29.43,SSE,164,3.0,14.0,93,0.00,,---,0.01,VWS V14.01,2013-11-17 12:04:00,
2013-11-17 07:09:00,55.2,53.2,29.44,South,182,8.0,12.0,93,0.00,,---,0.01,VWS V14.01,2013-11-17 12:09:00,
2013-11-17 07:14:00,55.4,53.7,29.44,SSE,165,6.0,12.0,94,0.00,,---,0.01,VWS V14.01,2013-11-17 12:14:00,
2013-11-17 07:19:00,55.5,53.8,29.43,SSW,202,4.0,15.0,94,0.00,,---,0.01,VWS V14.01,2013-11-17 12:19:00,
2013-11-17 07:24:00,55.6,53.9,29.43,SSW,194,6.0,13.0,94,0.00,,---,0.01,VWS V14.01,2013-11-17 12:24:00,
2013-11-17 07:29:00,55.7,54.0,29.43,South,187,6.0,11.0,94,0.00,,---,0.01,VWS V14.01,2013-11-17 12:29:00,
2013-11-17 07:34:00,55.8,54.1,29.43,South,181,5.0,10.0,94,0.00,,---,0.01,VWS V14.01,2013-11-17 12:34:00,
2013-11-17 07:39:00,55.8,54.1,29.43,South,169,5.0,7.0,94,0.00,,---,0.01,VWS V14.01,2013-11-17 12:39:00,
2013-11-17 07:44:00,55.9,54.2,29.42,South,184,7.0,7.0,94,0.00,,---,0.01,VWS V14.01,2013-11-17 12:44:00,
2013-11-17 07:49:00,55.9,53.9,29.42,SSE,160,9.0,10.0,93,0.00,,---,0.01,VWS V14.01,2013-11-17 12:49:00,
2013-11-17 07:54:00,56.0,54.0,29.41,SE,138,7.0,10.0,93,0.00,,---,0.01,VWS V14.01,2013-11-17 12:54:00,
2013-11-17 07:59:00,56.0,54.3,29.41,SSE,159,3.0,7.0,94,0.00,,---,0.01,VWS V14.01,2013-11-17 12:59:00,
2013-11-17 08:04:00,56.0,54.3,29.41,SSE,150,4.0,5.0,94,0.00,,---,0.01,VWS V14.01,2013-11-17 13:04:00,
2013-11-17 08:09:00,56.1,54.4,29.42,SSE,148,0.0,9.0,94,0.00,,---,0.01,VWS V14.01,2013-11-17 13:09:00,
2013-11-17 08:14:00,56.1,54.4,29.42,South,178,4.0,6.0,94,0.00,,---,0.01,VWS V14.01,2013-11-17 13:14:00,
2013-11-17 08:19:00,56.1,54.4,29.42,SE,145,1.0,6.0,94,0.00,,---,0.01,VWS V14.01,2013-11-17 13:19:00,
2013-11-17 08:24:00,56.1,54.1,29.42,South,182,3.0,6.0,93,0.00,,---,0.01,VWS V14.01,2013-11-17 13:24:00,
2013-11-17 08:29:00,56.1,54.1,29.42,South,175,5.0,9.0,93,0.00,,---,0.01,VWS V14.01,2013-11-17 13:29:00,
2013-11-17 08:34:00,56.1,54.1,29.41,South,169,3.0,7.0,93,0.00,,---,0.01,VWS V14.01,2013-11-17 13:34:00,
2013-11-17 08:39:00,56.3,54.6,29.41,SSE,150,5.0,9.0,94,0.00,,---,0.01,VWS V14.01,2013-11-17 13:39:00,
2013-11-17 08:44:00,56.4,54.4,29.41,South,184,10.0,10.0,93,0.00,,---,0.01,VWS V14.01,2013-11-17 13:44:00,
2013-11-17 08:49:00,56.5,54.5,29.41,South,180,5.0,7.0,93,0.00,,---,0.01,VWS V14.01,2013-11-17 13:49:00,
2013-11-17 08:54:00,56.5,54.5,29.41,South,179,5.0,9.0,93,0.00,,---,0.01,VWS V14.01,2013-11-17 13:54:00,
2013-11-17 08:59:00,56.6,54.6,29.41,South,186,5.0,8.0,93,0.00,,---,0.01,VWS V14.01,2013-11-17 13:59:00,
2013-11-17 09:04:00,56.7,54.7,29.41,South,180,11.0,14.0,93,0.00,,---,0.01,VWS V14.01,2013-11-17 14:04:00,
2013-11-17 09:09:00,56.8,54.8,29.40,SSE,168,3.0,10.0,93,0.00,,---,0.01,VWS V14.01,2013-11-17 14:09:00,
2013-11-17 09:14:00,56.9,54.9,29.39,SSE,160,6.0,11.0,93,0.01,,---,0.02,VWS V14.01,2013-11-17 14:14:00,
2013-11-17 09:19:00,57.0,55.0,29.39,SSE,150,10.0,12.0,93,0.01,,---,0.02,VWS V14.01,2013-11-17 14:19:00,
2013-11-17 09:24:00,57.0,55.0,29.38,SE,139,10.0,11.0,93,0.01,,---,0.02,VWS V14.01,2013-11-17 14:24:00,
2013-11-17 09:29:00,57.1,55.1,29.38,SSE,156,5.0,14.0,93,0.01,,---,0.02,VWS V14.01,2013-11-17 14:29:00,
2013-11-17 09:34:00,57.2,55.2,29.38,SE,142,4.0,13.0,93,0.01,,---,0.02,VWS V14.01,2013-11-17 14:34:00,
2013-11-17 09:39:00,57.3,55.3,29.38,SSE,150,4.0,12.0,93,0.01,,---,0.02,VWS V14.01,2013-11-17 14:39:00,
2013-11-17 09:44:00,57.4,55.4,29.38,SSE,161,7.0,11.0,93,0.01,,---,0.02,VWS V14.01,2013-11-17 14:44:00,
2013-11-17 09:49:00,57.5,55.8,29.38,South,176,6.0,14.0,94,0.01,,---,0.02,VWS V14.01,2013-11-17 14:49:00,
2013-11-17 09:54:00,57.6,55.6,29.37,SSE,151,5.0,11.0,93,0.01,,---,0.02,VWS V14.01,2013-11-17 14:54:00,
2013-11-17 09:59:00,57.7,55.7,29.37,SSE,152,3.0,9.0,93,0.01,,---,0.02,VWS V14.01,2013-11-17 14:59:00,
2013-11-17 10:04:00,57.8,55.8,29.36,South,186,3.0,10.0,93,0.01,,---,0.02,VWS V14.01,2013-11-17 15:04:00,
2013-11-17 10:09:00,57.9,56.2,29.36,South,172,3.0,9.0,94,0.01,,---,0.02,VWS V14.01,2013-11-17 15:09:00,
2013-11-17 10:14:00,58.0,56.3,29.36,South,169,2.0,7.0,94,0.01,,---,0.02,VWS V14.01,2013-11-17 15:14:00,
2013-11-17 10:19:00,58.1,56.4,29.36,South,182,3.0,5.0,94,0.00,,---,0.02,VWS V14.01,2013-11-17 15:19:00,
2013-11-17 10:24:00,58.2,56.5,29.35,SSE,161,3.0,6.0,94,0.00,,---,0.02,VWS V14.01,2013-11-17 15:24:00,
2013-11-17 10:29:00,58.3,56.3,29.35,SSE,155,1.0,5.0,93,0.00,,---,0.02,VWS V14.01,2013-11-17 15:29:00,
2013-11-17 10:34:00,58.2,56.2,29.35,SSE,148,0.0,5.0,93,0.00,,---,0.02,VWS V14.01,2013-11-17 15:34:00,
2013-11-17 10:39:00,58.2,56.2,29.34,SE,139,2.0,4.0,93,0.00,,---,0.02,VWS V14.01,2013-11-17 15:39:00,
2013-11-17 10:44:00,58.1,56.1,29.34,East,94,2.0,5.0,93,0.00,,---,0.02,VWS V14.01,2013-11-17 15:44:00,
2013-11-17 10:49:00,58.0,56.0,29.34,SE,130,3.0,4.0,93,0.02,,---,0.04,VWS V14.01,2013-11-17 15:49:00,
2013-11-17 10:54:00,57.9,55.9,29.33,ESE,103,5.0,5.0,93,0.04,,---,0.06,VWS V14.01,2013-11-17 15:54:00,
2013-11-17 10:59:00,57.8,55.8,29.33,ESE,113,2.0,6.0,93,0.06,,---,0.08,VWS V14.01,2013-11-17 15:59:00,
2013-11-17 11:04:00,57.7,55.7,29.33,ESE,111,4.0,7.0,93,0.11,,---,0.13,VWS V14.01,2013-11-17 16:04:00,
2013-11-17 11:09:00,57.6,55.6,29.32,ESE,105,3.0,6.0,93,0.15,,---,0.17,VWS V14.01,2013-11-17 16:09:00,
2013-11-17 11:14:00,57.5,55.5,29.31,ESE,111,6.0,7.0,93,0.16,,---,0.18,VWS V14.01,2013-11-17 16:14:00,
2013-11-17 11:19:00,57.5,55.8,29.30,ESE,111,7.0,11.0,94,0.16,,---,0.18,VWS V14.01,2013-11-17 16:19:00,
2013-11-17 11:24:00,57.5,55.8,29.30,SE,145,4.0,12.0,94,0.16,,---,0.18,VWS V14.01,2013-11-17 16:24:00,
2013-11-17 11:30:00,57.5,55.8,29.29,ESE,117,5.0,9.0,94,0.16,,---,0.18,VWS V14.01,2013-11-17 16:30:00,
2013-11-17 11:35:00,57.4,55.7,29.28,SE,136,2.0,14.0,94,0.16,,---,0.18,VWS V14.01,2013-11-17 16:35:00,
2013-11-17 11:40:00,57.4,55.7,29.27,SE,134,5.0,11.0,94,0.17,,---,0.19,VWS V14.01,2013-11-17 16:40:00,
2013-11-17 11:44:00,57.3,55.6,29.27,SSE,160,5.0,9.0,94,0.17,,---,0.19,VWS V14.01,2013-11-17 16:44:00,
2013-11-17 11:49:00,57.3,55.6,29.25,ESE,106,4.0,14.0,94,0.18,,---,0.20,VWS V14.01,2013-11-17 16:49:00,
2013-11-17 11:54:00,57.3,55.6,29.23,SE,126,4.0,16.0,94,0.17,,---,0.21,VWS V14.01,2013-11-17 16:54:00,
2013-11-17 12:00:00,57.4,55.7,29.23,SE,145,4.0,10.0,94,0.15,,---,0.21,VWS V14.01,2013-11-17 17:00:00,
2013-11-17 12:05:00,57.5,55.8,29.22,SE,141,6.0,12.0,94,0.13,,---,0.21,VWS V14.01,2013-11-17 17:05:00,
2013-11-17 12:10:00,57.7,56.0,29.21,SE,124,2.0,12.0,94,0.08,,---,0.22,VWS V14.01,2013-11-17 17:10:00,
2013-11-17 12:15:00,57.9,56.2,29.21,SE,145,8.0,14.0,94,0.05,,---,0.22,VWS V14.01,2013-11-17 17:15:00,
2013-11-17 12:20:00,58.1,56.4,29.20,ESE,114,6.0,20.0,94,0.04,,---,0.22,VWS V14.01,2013-11-17 17:20:00,
2013-11-17 12:25:00,58.0,56.3,29.19,SE,138,9.0,18.0,94,0.04,,---,0.22,VWS V14.01,2013-11-17 17:25:00,
2013-11-17 12:30:00,57.8,56.1,29.18,SSE,148,4.0,20.0,94,0.05,,---,0.23,VWS V14.01,2013-11-17 17:30:00,
2013-11-17 12:35:00,57.9,56.2,29.17,SE,146,5.0,18.0,94,0.05,,---,0.23,VWS V14.01,2013-11-17 17:35:00,
2013-11-17 12:40:00,58.0,56.3,29.16,South,175,7.0,18.0,94,0.05,,---,0.23,VWS V14.01,2013-11-17 17:40:00,
2013-11-17 12:45:00,57.9,56.2,29.15,SE,136,13.0,18.0,94,0.04,,---,0.23,VWS V14.01,2013-11-17 17:45:00,
2013-11-17 12:50:00,58.0,56.3,29.14,SE,144,16.0,19.0,94,0.03,,---,0.23,VWS V14.01,2013-11-17 17:50:00,
2013-11-17 12:55:00,58.0,56.3,29.14,South,171,7.0,18.0,94,0.03,,---,0.23,VWS V14.01,2013-11-17 17:55:00,
2013-11-17 13:00:00,58.0,56.3,29.13,SSE,159,7.0,19.0,94,0.02,,---,0.23,VWS V14.01,2013-11-17 18:00:00,
2013-11-17 13:05:00,58.0,56.3,29.13,SSE,161,6.0,19.0,94,0.02,,---,0.23,VWS V14.01,2013-11-17 18:05:00,
2013-11-17 13:10:00,58.3,56.6,29.12,SSW,192,10.0,19.0,94,0.02,,---,0.23,VWS V14.01,2013-11-17 18:10:00,
2013-11-17 13:15:00,58.7,57.0,29.12,SSE,160,7.0,22.0,94,0.01,,---,0.23,VWS V14.01,2013-11-17 18:15:00,
2013-11-17 13:20:00,59.0,57.3,29.13,WSW,254,13.0,19.0,94,0.01,,---,0.23,VWS V14.01,2013-11-17 18:20:00,
2013-11-17 13:25:00,58.7,57.0,29.14,West,274,17.0,29.0,94,0.06,,---,0.28,VWS V14.01,2013-11-17 18:25:00,
2013-11-17 13:30:00,57.0,55.0,29.14,West,263,20.0,29.0,93,0.23,,---,0.45,VWS V14.01,2013-11-17 18:30:00,
2013-11-17 13:35:00,56.2,54.2,29.14,SW,215,2.0,26.0,93,0.31,,---,0.54,VWS V14.01,2013-11-17 18:35:00,
2013-11-17 13:40:00,55.9,53.9,29.13,SW,236,5.0,10.0,93,0.38,,---,0.61,VWS V14.01,2013-11-17 18:40:00,
2013-11-17 13:45:00,55.5,53.8,29.13,West,262,6.0,12.0,94,0.44,,---,0.67,VWS V14.01,2013-11-17 18:45:00,
2013-11-17 13:50:00,55.3,53.6,29.11,WSW,250,1.0,8.0,94,0.47,,---,0.70,VWS V14.01,2013-11-17 18:50:00,
2013-11-17 13:55:00,55.1,53.4,29.12,West,279,5.0,7.0,94,0.47,,---,0.70,VWS V14.01,2013-11-17 18:55:00,
2013-11-17 14:00:00,54.9,53.2,29.11,WNW,291,0.0,10.0,94,0.50,,---,0.73,VWS V14.01,2013-11-17 19:00:00,
2013-11-17 14:05:00,54.8,53.1,29.12,West,279,7.0,15.0,94,0.58,,---,0.81,VWS V14.01,2013-11-17 19:05:00,
2013-11-17 14:10:00,54.7,53.0,29.12,West,261,6.0,10.0,94,0.60,,---,0.83,VWS V14.01,2013-11-17 19:10:00,
2013-11-17 14:15:00,54.6,52.9,29.10,NE,44,4.0,10.0,94,0.61,,---,0.84,VWS V14.01,2013-11-17 19:15:00,
2013-11-17 14:20:00,54.6,52.9,29.11,SW,225,4.0,4.0,94,0.62,,---,0.85,VWS V14.01,2013-11-17 19:20:00,
2013-11-17 14:25:00,54.5,52.8,29.14,West,259,19.0,24.0,94,0.67,,---,0.90,VWS V14.01,2013-11-17 19:25:00,
2013-11-17 14:30:00,54.2,52.5,29.12,WNW,299,9.0,21.0,94,0.70,,---,0.99,VWS V14.01,2013-11-17 19:30:00,
2013-11-17 14:35:00,54.1,52.4,29.12,West,275,7.0,14.0,94,0.58,,---,1.03,VWS V14.01,2013-11-17 19:35:00,
2013-11-17 14:40:00,54.0,52.3,29.12,North,5,3.0,11.0,94,0.53,,---,1.08,VWS V14.01,2013-11-17 19:40:00,
2013-11-17 14:45:00,54.1,52.4,29.11,West,273,9.0,13.0,94,0.48,,---,1.09,VWS V14.01,2013-11-17 19:45:00,
2013-11-17 14:50:00,54.0,52.6,29.12,WNW,291,6.0,12.0,95,0.46,,---,1.13,VWS V14.01,2013-11-17 19:50:00,
2013-11-17 14:55:00,54.1,52.7,29.11,West,265,4.0,13.0,95,0.46,,---,1.16,VWS V14.01,2013-11-17 19:55:00,
2013-11-17 15:00:00,54.0,52.6,29.08,NNE,26,0.0,7.0,95,0.48,,---,1.18,VWS V14.01,2013-11-17 20:00:00,
2013-11-17 15:05:00,53.9,52.5,29.08,North,11,4.0,5.0,95,0.46,,---,1.19,VWS V14.01,2013-11-17 20:05:00,
2013-11-17 15:10:00,53.9,52.5,29.09,NNE,12,0.0,2.0,95,0.38,,---,1.19,VWS V14.01,2013-11-17 20:10:00,
2013-11-17 15:15:00,53.9,52.5,29.10,ENE,74,0.0,3.0,95,0.37,,---,1.21,VWS V14.01,2013-11-17 20:15:00,
2013-11-17 15:20:00,53.9,52.5,29.09,East,94,5.0,9.0,95,0.40,,---,1.24,VWS V14.01,2013-11-17 20:20:00,
2013-11-17 15:25:00,53.9,52.5,29.09,ESE,107,7.0,9.0,95,0.41,,---,1.26,VWS V14.01,2013-11-17 20:25:00,
2013-11-17 15:30:00,53.9,52.5,29.08,East,92,6.0,10.0,95,0.37,,---,1.28,VWS V14.01,2013-11-17 20:30:00,
2013-11-17 15:35:00,53.7,52.3,29.08,ESE,103,6.0,9.0,95,0.31,,---,1.30,VWS V14.01,2013-11-17 20:35:00,
2013-11-17 15:40:00,53.6,52.2,29.08,ESE,111,0.0,7.0,95,0.29,,---,1.32,VWS V14.01,2013-11-17 20:40:00,
2013-11-17 15:45:00,53.6,52.2,29.09,ESE,117,0.0,3.0,95,0.25,,---,1.33,VWS V14.01,2013-11-17 20:45:00,
2013-11-17 15:50:00,53.6,52.2,29.08,ESE,104,5.0,7.0,95,0.26,,---,1.35,VWS V14.01,2013-11-17 20:50:00,
2013-11-17 15:55:00,53.6,52.2,29.08,ESE,110,4.0,4.0,95,0.21,,---,1.37,VWS V14.01,2013-11-17 20:55:00,
2013-11-17 16:00:00,53.6,52.2,29.07,ESE,105,7.0,7.0,95,0.23,,---,1.39,VWS V14.01,2013-11-17 21:00:00,
2013-11-17 16:05:00,53.5,52.1,29.07,ESE,110,5.0,9.0,95,0.23,,---,1.41,VWS V14.01,2013-11-17 21:05:00,
2013-11-17 16:10:00,53.5,52.1,29.06,ESE,115,3.0,7.0,95,0.24,,---,1.43,VWS V14.01,2013-11-17 21:10:00,
2013-11-17 16:15:00,53.5,52.1,29.06,ESE,107,2.0,6.0,95,0.26,,---,1.45,VWS V14.01,2013-11-17 21:15:00,
2013-11-17 16:20:00,53.5,52.1,29.07,SSE,149,1.0,8.0,95,0.24,,---,1.45,VWS V14.01,2013-11-17 21:20:00,
2013-11-17 16:25:00,53.6,52.2,29.07,SSE,150,6.0,8.0,95,0.22,,---,1.46,VWS V14.01,2013-11-17 21:25:00,
2013-11-17 16:30:00,53.6,52.2,29.06,SE,128,3.0,4.0,95,0.19,,---,1.47,VWS V14.01,2013-11-17 21:30:00,
2013-11-17 16:35:00,53.6,52.2,29.05,SSE,154,0.0,6.0,95,0.20,,---,1.48,VWS V14.01,2013-11-17 21:35:00,
2013-11-17 16:40:00,53.5,52.1,29.04,SSE,150,3.0,6.0,95,0.20,,---,1.50,VWS V14.01,2013-11-17 21:40:00,
2013-11-17 16:45:00,53.5,52.1,29.04,South,178,5.0,9.0,95,0.19,,---,1.51,VWS V14.01,2013-11-17 21:45:00,
2013-11-17 16:50:00,53.5,52.1,29.03,SSE,168,3.0,3.0,95,0.17,,---,1.52,VWS V14.01,2013-11-17 21:50:00,
2013-11-17 16:55:00,53.5,52.1,29.02,SSE,153,4.0,5.0,95,0.19,,---,1.54,VWS V14.01,2013-11-17 21:55:00,
2013-11-17 17:00:00,53.4,52.0,29.01,SSE,155,2.0,2.0,95,0.17,,---,1.56,VWS V14.01,2013-11-17 22:00:00,
2013-11-17 17:05:00,53.3,51.9,29.01,SSE,149,2.0,2.0,95,0.17,,---,1.58,VWS V14.01,2013-11-17 22:05:00,
2013-11-17 17:10:00,53.2,51.8,29.01,SSE,147,3.0,3.0,95,0.15,,---,1.58,VWS V14.01,2013-11-17 22:10:00,
2013-11-17 17:15:00,53.1,51.7,29.01,SSE,153,2.0,2.0,95,0.14,,---,1.59,VWS V14.01,2013-11-17 22:15:00,
2013-11-17 17:20:00,53.1,51.7,29.01,SSE,159,3.0,4.0,95,0.14,,---,1.59,VWS V14.01,2013-11-17 22:20:00,
2013-11-17 17:25:00,53.1,51.7,29.01,SSE,150,2.0,3.0,95,0.13,,---,1.59,VWS V14.01,2013-11-17 22:25:00,
2013-11-17 17:30:00,53.1,51.7,29.01,South,174,2.0,2.0,95,0.12,,---,1.59,VWS V14.01,2013-11-17 22:30:00,
2013-11-17 17:35:00,53.1,51.7,29.01,SSE,164,4.0,4.0,95,0.12,,---,1.60,VWS V14.01,2013-11-17 22:35:00,
2013-11-17 17:40:00,53.1,51.7,29.01,South,183,4.0,4.0,95,0.10,,---,1.60,VWS V14.01,2013-11-17 22:40:00,
2013-11-17 17:45:00,53.1,51.7,29.01,South,171,2.0,3.0,95,0.10,,---,1.61,VWS V14.01,2013-11-17 22:45:00,
2013-11-17 17:50:00,53.1,51.7,29.01,South,178,2.0,3.0,95,0.10,,---,1.62,VWS V14.01,2013-11-17 22:50:00,
2013-11-17 17:55:00,53.1,51.7,29.00,South,184,4.0,4.0,95,0.09,,---,1.63,VWS V14.01,2013-11-17 22:55:00,
2013-11-17 18:00:00,53.1,51.7,29.00,South,180,2.0,3.0,95,0.08,,---,1.64,VWS V14.01,2013-11-17 23:00:00,
2013-11-17 18:05:00,53.1,51.7,29.00,South,184,5.0,5.0,95,0.08,,---,1.66,VWS V14.01,2013-11-17 23:05:00,
2013-11-17 18:10:00,53.1,51.7,29.00,SSW,195,8.0,9.0,95,0.09,,---,1.67,VWS V14.01,2013-11-17 23:10:00,
2013-11-17 18:15:00,53.2,51.8,29.00,SW,221,8.0,8.0,95,0.08,,---,1.67,VWS V14.01,2013-11-17 23:15:00,
2013-11-17 18:20:00,53.2,51.8,28.99,SSW,193,10.0,10.0,95,0.09,,---,1.68,VWS V14.01,2013-11-17 23:20:00,
2013-11-17 18:25:00,53.1,51.7,28.99,South,190,7.0,9.0,95,0.11,,---,1.70,VWS V14.01,2013-11-17 23:25:00,
2013-11-17 18:30:00,53.0,51.6,28.99,WSW,244,10.0,10.0,95,0.12,,---,1.71,VWS V14.01,2013-11-17 23:30:00,
2013-11-17 18:35:00,52.9,51.5,28.99,WSW,250,8.0,12.0,95,0.11,,---,1.71,VWS V14.01,2013-11-17 23:35:00,
2013-11-17 18:40:00,52.6,51.2,28.99,West,262,15.0,19.0,95,0.12,,---,1.72,VWS V14.01,2013-11-17 23:40:00,
2013-11-17 18:45:00,50.9,49.5,28.99,West,263,12.0,14.0,95,0.11,,---,1.72,VWS V14.01,2013-11-17 23:45:00,
2013-11-17 18:50:00,50.0,48.6,29.00,WSW,248,15.0,15.0,95,0.12,,---,1.74,VWS V14.01,2013-11-17 23:50:00,
2013-11-17 18:55:00,49.5,48.1,29.00,West,261,10.0,12.0,95,0.12,,---,1.75,VWS V14.01,2013-11-17 23:55:00,
2013-11-17 19:00:00,49.3,47.9,29.00,WNW,283,8.0,10.0,95,0.12,,---,1.76,VWS V14.01,2013-11-18 00:00:00,
2013-11-17 19:05:00,49.2,47.8,28.99,West,271,7.0,7.0,95,0.11,,---,1.77,VWS V14.01,2013-11-18 00:05:00,
2013-11-17 19:10:00,49.2,47.8,28.99,West,276,9.0,11.0,95,0.11,,---,1.78,VWS V14.01,2013-11-18 00:10:00,
2013-11-17 19:15:00,49.2,47.8,28.98,West,275,3.0,8.0,95,0.12,,---,1.79,VWS V14.01,2013-11-18 00:15:00,
2013-11-17 19:20:00,49.2,47.8,28.98,West,279,10.0,11.0,95,0.12,,---,1.80,VWS V14.01,2013-11-18 00:20:00,
2013-11-17 19:25:00,49.0,47.6,28.97,West,277,4.0,7.0,95,0.10,,---,1.80,VWS V14.01,2013-11-18 00:25:00,
2013-11-17 19:30:00,49.0,47.6,28.97,West,280,0.0,4.0,95,0.09,,---,1.80,VWS V14.01,2013-11-18 00:30:00,
2013-11-17 19:35:00,49.0,47.6,28.98,WNW,286,9.0,9.0,95,0.09,,---,1.80,VWS V14.01,2013-11-18 00:35:00,
2013-11-17 19:40:00,49.0,47.6,28.98,West,266,9.0,11.0,95,0.08,,---,1.80,VWS V14.01,2013-11-18 00:40:00,
2013-11-17 19:45:00,48.9,47.5,28.97,West,275,4.0,6.0,95,0.08,,---,1.80,VWS V14.01,2013-11-18 00:45:00,
2013-11-17 19:50:00,48.8,47.4,28.96,WNW,298,12.0,18.0,95,0.07,,---,1.81,VWS V14.01,2013-11-18 00:50:00,
2013-11-17 19:55:00,48.7,47.3,28.96,West,279,4.0,6.0,95,0.06,,---,1.81,VWS V14.01,2013-11-18 00:55:00,
2013-11-17 20:00:00,48.7,47.3,28.98,West,263,12.0,13.0,95,0.06,,---,1.82,VWS V14.01,2013-11-18 01:00:00,
2013-11-17 20:05:00,48.7,47.3,28.98,West,264,14.0,17.0,95,0.05,,---,1.82,VWS V14.01,2013-11-18 01:05:00,
2013-11-17 20:10:00,48.8,47.4,28.99,WNW,286,19.0,19.0,95,0.04,,---,1.82,VWS V14.01,2013-11-18 01:10:00,
2013-11-17 20:15:00,48.8,47.4,28.99,WNW,284,6.0,6.0,95,0.04,,---,1.83,VWS V14.01,2013-11-18 01:15:00,
2013-11-17 20:21:00,48.8,47.4,28.99,West,279,12.0,15.0,95,0.04,,---,1.83,VWS V14.01,2013-11-18 01:21:00,
2013-11-17 20:25:00,48.7,47.3,29.00,WNW,302,13.0,17.0,95,0.03,,---,1.83,VWS V14.01,2013-11-18 01:25:00,
2013-11-17 20:31:00,48.7,47.3,29.00,West,277,15.0,15.0,95,0.04,,---,1.84,VWS V14.01,2013-11-18 01:31:00,
2013-11-17 20:36:00,48.6,47.2,29.00,West,261,17.0,17.0,95,0.04,,---,1.84,VWS V14.01,2013-11-18 01:36:00,
2013-11-17 20:41:00,48.6,47.2,29.00,West,268,15.0,21.0,95,0.06,,---,1.86,VWS V14.01,2013-11-18 01:41:00,
2013-11-17 20:46:00,48.2,46.8,29.01,NW,311,11.0,13.0,95,0.07,,---,1.87,VWS V14.01,2013-11-18 01:46:00,
2013-11-17 20:51:00,47.4,46.0,29.01,West,273,17.0,23.0,95,0.08,,---,1.89,VWS V14.01,2013-11-18 01:51:00,
2013-11-17 20:56:00,46.8,45.5,29.02,West,275,16.0,33.0,95,0.09,,---,1.90,VWS V14.01,2013-11-18 01:56:00,
2013-11-17 21:01:00,46.4,45.0,29.03,ESE,123,6.0,17.0,95,0.09,,---,1.91,VWS V14.01,2013-11-18 02:01:00,
2013-11-17 21:06:00,46.2,44.8,29.03,West,271,7.0,14.0,95,0.10,,---,1.92,VWS V14.01,2013-11-18 02:06:00,
2013-11-17 21:11:00,46.0,44.7,29.04,NNW,327,6.0,14.0,95,0.10,,---,1.92,VWS V14.01,2013-11-18 02:11:00,
2013-11-17 21:16:00,45.9,44.5,29.05,WNW,294,22.0,22.0,95,0.10,,---,1.93,VWS V14.01,2013-11-18 02:16:00,
2013-11-17 21:21:00,45.6,44.2,29.05,WNW,290,8.0,24.0,95,0.11,,---,1.94,VWS V14.01,2013-11-18 02:21:00,
2013-11-17 21:26:00,45.3,44.0,29.06,WNW,286,12.0,14.0,95,0.12,,---,1.95,VWS V14.01,2013-11-18 02:26:00,
2013-11-17 21:31:00,45.2,43.9,29.06,NW,325,11.0,18.0,95,0.11,,---,1.95,VWS V14.01,2013-11-18 02:31:00,
2013-11-17 21:36:00,45.3,44.0,29.07,West,267,25.0,25.0,95,0.11,,---,1.95,VWS V14.01,2013-11-18 02:36:00,
2013-11-17 21:41:00,45.2,43.9,29.07,West,275,16.0,24.0,95,0.11,,---,1.96,VWS V14.01,2013-11-18 02:41:00,
2013-11-17 21:46:00,45.1,43.8,29.08,West,281,12.0,25.0,95,0.09,,---,1.96,VWS V14.01,2013-11-18 02:46:00,
2013-11-17 21:51:00,45.2,43.6,29.08,West,265,19.0,21.0,94,0.07,,---,1.96,VWS V14.01,2013-11-18 02:51:00,
2013-11-17 21:56:00,45.3,43.7,29.08,WNW,302,17.0,24.0,94,0.06,,---,1.96,VWS V14.01,2013-11-18 02:56:00,
2013-11-17 22:01:00,45.4,43.8,29.09,WNW,292,16.0,21.0,94,0.05,,---,1.96,VWS V14.01,2013-11-18 03:01:00,
2013-11-17 22:06:00,45.6,44.0,29.09,West,281,25.0,26.0,94,0.05,,---,1.96,VWS V14.01,2013-11-18 03:06:00,
2013-11-17 22:11:00,45.7,44.1,29.09,West,274,24.0,24.0,94,0.04,,---,1.96,VWS V14.01,2013-11-18 03:11:00,
2013-11-17 22:16:00,45.8,44.2,29.10,West,275,27.0,27.0,94,0.03,,---,1.96,VWS V14.01,2013-11-18 03:16:00,
2013-11-17 22:21:00,45.8,43.9,29.10,West,272,25.0,30.0,93,0.02,,---,1.96,VWS V14.01,2013-11-18 03:21:00,
2013-11-17 22:26:00,45.7,43.8,29.10,West,275,19.0,28.0,93,0.01,,---,1.96,VWS V14.01,2013-11-18 03:26:00,
2013-11-17 22:31:00,45.7,43.5,29.11,WNW,284,21.0,27.0,92,0.02,,---,1.97,VWS V14.01,2013-11-18 03:31:00,
2013-11-17 22:36:00,45.6,43.4,29.11,West,272,29.0,35.0,92,0.02,,---,1.97,VWS V14.01,2013-11-18 03:36:00,
2013-11-17 22:41:00,45.6,43.1,29.12,WSW,246,18.0,30.0,91,0.02,,---,1.97,VWS V14.01,2013-11-18 03:41:00,
2013-11-17 22:46:00,45.4,42.9,29.12,NNW,338,11.0,26.0,91,0.01,,---,1.97,VWS V14.01,2013-11-18 03:46:00,
2013-11-17 22:51:00,45.1,42.6,29.13,West,277,31.0,31.0,91,0.02,,---,1.98,VWS V14.01,2013-11-18 03:51:00,
2013-11-17 22:56:00,45.2,42.5,29.13,West,259,33.0,33.0,90,0.02,,---,1.98,VWS V14.01,2013-11-18 03:56:00,
2013-11-17 23:01:00,45.2,42.2,29.14,West,272,21.0,26.0,89,0.02,,---,1.98,VWS V14.01,2013-11-18 04:01:00,
2013-11-17 23:06:00,45.0,42.2,29.14,WSW,254,24.0,37.0,90,0.02,,---,1.98,VWS V14.01,2013-11-18 04:06:00,
2013-11-17 23:11:00,44.8,42.0,29.15,West,274,22.0,23.0,90,0.02,,---,1.98,VWS V14.01,2013-11-18 04:11:00,
2013-11-17 23:16:00,44.7,42.0,29.16,West,275,30.0,34.0,90,0.02,,---,1.98,VWS V14.01,2013-11-18 04:16:00,
2013-11-17 23:21:00,44.6,41.6,29.16,WSW,255,21.0,29.0,89,0.02,,---,1.98,VWS V14.01,2013-11-18 04:21:00,
2013-11-17 23:26:00,44.5,41.5,29.17,WSW,256,33.0,33.0,89,0.02,,---,1.98,VWS V14.01,2013-11-18 04:26:00,
2013-11-17 23:31:00,44.5,41.5,29.17,West,269,26.0,36.0,89,0.01,,---,1.98,VWS V14.01,2013-11-18 04:31:00,
2013-11-17 23:36:00,44.5,41.5,29.18,SW,236,24.0,28.0,89,0.01,,---,1.98,VWS V14.01,2013-11-18 04:36:00,
2013-11-17 23:41:00,44.3,41.3,29.18,West,271,33.0,36.0,89,0.01,,---,1.98,VWS V14.01,2013-11-18 04:41:00,
2013-11-17 23:46:00,44.1,40.8,29.19,West,260,21.0,32.0,88,0.01,,---,1.98,VWS V14.01,2013-11-18 04:46:00,
2013-11-17 23:51:00,44.1,40.8,29.20,West,275,28.0,38.0,88,0.00,,---,1.98,VWS V14.01,2013-11-18 04:51:00,
2013-11-17 23:56:00,44.1,40.8,29.20,West,269,26.0,30.0,88,0.00,,---,1.98,VWS V14.01,2013-11-18 04:56:00,